KD8TSA Weather Reports


Display with metric or nautical units.
time (UTC)temp
F
wind
direction
speed
MPH
gust
MPH
rain 1hr
in
rain 24hr
in
rain mn
in
humidity
%
barometer
mb
20260903051422 79 189 0.0 0.0 0.00 0.00 0.00 83 1016.6
20260903050918 80 173 0.0 0.0 0.00 0.00 0.00 83 1016.6
20260903050416 80 169 0.0 0.0 0.00 0.00 0.00 83 1016.4
20260903045911 80 179 0.0 0.0 0.00 0.00 0.00 83 1016.4
20260903045406 79 187 0.0 0.0 0.00 0.00 0.00 83 1016.4
20260903044858 79 183 0.0 0.0 0.00 0.00 0.00 84 1016.4
20260903044358 79 180 0.0 0.0 0.00 0.00 0.00 83 1016.4
20260903043855 79 198 0.0 0.0 0.00 0.00 0.00 83 1016.1
20260903043355 79 175 0.0 0.0 0.00 0.00 0.00 83 1016.3
20260903042853 79 190 0.0 0.0 0.00 0.00 0.00 84 1016.3
20260903042349 79 185 0.0 0.0 0.00 0.00 0.00 84 1016.4
20260903041844 79 182 0.0 0.0 0.00 0.00 0.00 83 1016.3
20260903041341 79 179 0.0 0.0 0.00 0.00 0.00 83 1016.4
20260903040836 79 190 0.0 0.0 0.00 0.00 0.00 83 1016.3
20260903040335 79 188 0.0 1.0 0.00 0.00 0.00 83 1016.4
20260903035832 79 177 0.0 0.0 0.00 0.00 0.00 83 1016.3
20260903035326 80 199 0.0 0.0 0.00 0.00 0.00 83 1016.4
20260903034822 80 187 0.0 0.0 0.00 0.00 0.00 83 1016.1
20260903034317 80 157 0.0 1.0 0.00 0.00 0.00 83 1016.4
20260903033812 80 177 0.0 0.0 0.00 0.00 0.00 82 1016.2
20260903033307 80 178 0.0 0.0 0.00 0.00 0.00 81 1016.5
20260903032802 81 209 0.0 0.0 0.00 0.00 0.00 81 1016.6
20260903032258 81 181 0.0 0.0 0.00 0.00 0.00 81 1016.4
20260903031753 81 177 0.0 0.0 0.00 0.00 0.00 80 1016.6
20260903031252 81 180 0.0 0.0 0.00 0.00 0.00 80 1016.6
20260903030748 81 177 0.0 0.0 0.00 0.00 0.00 80 1016.5
20260903030244 81 181 0.0 0.0 0.00 0.00 0.00 81 1016.6
20260903025739 81 176 0.0 0.0 0.00 0.00 0.00 81 1016.5
20260903025235 81 181 0.0 0.0 0.00 0.00 0.00 81 1016.9
20260903024730 81 191 0.0 0.0 0.00 0.00 0.00 81 1016.6
20260903024229 81 180 0.0 0.0 0.00 0.00 0.00 81 1016.9
20260903023725 81 182 0.0 0.0 0.00 0.00 0.00 81 1016.8
20260903023220 81 172 0.0 0.0 0.00 0.00 0.00 81 1016.9
20260903022720 81 186 0.0 0.0 0.00 0.00 0.00 81 1017.0
20260903022219 81 168 0.0 0.0 0.00 0.00 0.00 81 1016.8
20260903021718 81 173 0.0 0.0 0.00 0.00 0.00 81 1016.8
20260903021213 81 167 0.0 0.0 0.00 0.00 0.00 82 1016.9
20260903020708 81 177 0.0 0.0 0.00 0.00 0.00 81 1016.8
20260903020203 81 191 0.0 0.0 0.00 0.00 0.00 81 1016.8
20260903015658 81 180 0.0 0.0 0.00 0.00 0.00 81 1016.8
20260903015154 82 184 0.0 0.0 0.00 0.00 0.00 80 1016.9
20260903014654 82 179 0.0 1.0 0.00 0.00 0.00 80 1016.8
20260903014148 82 183 0.0 0.0 0.00 0.00 0.00 81 1016.7
20260903013642 82 183 0.0 0.0 0.00 0.00 0.00 81 1016.7
20260903013137 81 197 1.0 1.0 0.00 0.00 0.00 81 1016.9
20260903012636 81 182 0.0 0.0 0.00 0.00 0.00 81 1016.6
20260903012135 81 184 0.0 0.0 0.00 0.00 0.00 81 1016.8
20260903011634 81 184 0.0 0.0 0.00 0.00 0.00 81 1016.5
20260903011129 82 183 0.0 0.0 0.00 0.00 0.00 81 1016.5
20260903010625 82 185 0.0 0.0 0.00 0.00 0.00 81 1016.5
20260903010123 82 184 0.0 0.0 0.00 0.00 0.00 81 1016.4
20260903005618 82 183 0.0 0.0 0.00 0.00 0.00 81 1016.2
20260903005114 82 184 0.0 0.0 0.00 0.00 0.00 81 1016.1
20260903004614 82 185 0.0 0.0 0.00 0.00 0.00 81 1016.2
20260903004109 82 183 0.0 0.0 0.00 0.00 0.00 81 1016.0
20260903003604 82 184 0.0 0.0 0.00 0.00 0.00 82 1016.3
20260903003059 82 184 0.0 0.0 0.00 0.00 0.00 82 1016.3
20260903002554 83 184 0.0 0.0 0.00 0.00 0.00 81 1016.1
20260903002049 83 184 0.0 0.0 0.00 0.00 0.00 81 1016.1
20260903001543 83 184 0.0 0.0 0.00 0.00 0.00 80 1016.0
20260903001042 84 184 0.0 0.0 0.00 0.00 0.00 80 1016.1
20260903000539 84 184 0.0 0.0 0.00 0.00 0.00 79 1016.2
20260903000037 85 189 0.0 0.0 0.00 0.00 0.00 79 1016.2
20260902235531 85 184 0.0 0.0 0.00 0.00 0.00 78 1016.1
20260902235026 86 190 0.0 0.0 0.00 0.00 0.00 77 1016.1
20260902234526 86 190 0.0 0.0 0.00 0.00 0.00 77 1016.1
20260902234025 87 188 0.0 0.0 0.00 0.00 0.00 76 1016.2
20260902233519 88 189 0.0 0.0 0.00 0.00 0.00 75 1016.3
20260902233009 88 184 0.0 0.0 0.00 0.00 0.00 74 1016.0
20260902232508 89 182 0.0 0.0 0.00 0.00 0.00 72 1016.1
20260902232002 89 186 0.0 0.0 0.00 0.00 0.00 72 1016.2
20260902231457 89 183 0.0 1.0 0.00 0.00 0.00 72 1016.3
20260902230952 89 186 0.0 0.0 0.00 0.00 0.00 72 1016.3
20260902230446 90 187 0.0 0.0 0.00 0.00 0.00 71 1016.3
20260902225945 91 192 0.0 0.0 0.00 0.00 0.00 69 1016.5
20260902225440 92 174 0.0 0.0 0.00 0.00 0.00 67 1016.2
20260902224940 93 186 0.0 0.0 0.00 0.00 0.00 67 1016.2
20260902224439 93 188 0.0 0.0 0.00 0.00 0.00 66 1016.1
20260902223936 93 185 0.0 0.0 0.00 0.00 0.00 66 1016.3
20260902223431 93 223 0.0 0.0 0.00 0.00 0.00 65 1016.2
20260902222930 93 193 0.0 1.0 0.00 0.00 0.00 64 1016.4
20260902222428 93 194 0.0 0.0 0.00 0.00 0.00 65 1016.3
20260902221923 93 208 1.0 1.0 0.00 0.00 0.00 64 1016.3
20260902221422 93 189 0.0 0.0 0.00 0.00 0.00 65 1016.4
20260902220917 94 164 0.0 0.0 0.00 0.00 0.00 64 1016.4
20260902220412 93 191 0.0 0.0 0.00 0.00 0.00 64 1016.3
20260902215907 94 217 0.0 1.0 0.00 0.00 0.00 63 1016.3
20260902215403 94 185 0.0 0.0 0.00 0.00 0.00 63 1016.5
20260902214859 94 192 0.0 0.0 0.00 0.00 0.00 63 1016.6
20260902214357 94 187 0.0 1.0 0.00 0.00 0.00 63 1016.5
20260902213851 94 171 0.0 0.0 0.00 0.00 0.00 62 1016.5
20260902213348 95 252 0.0 1.0 0.00 0.00 0.00 62 1016.6
20260902212846 94 187 0.0 0.0 0.00 0.00 0.00 63 1016.4
20260902212343 95 206 3.0 5.0 0.00 0.00 0.00 61 1016.4
20260902211839 94 227 0.0 1.0 0.00 0.00 0.00 62 1016.3
20260902211335 94 185 0.0 0.0 0.00 0.00 0.00 62 1016.5
20260902210830 94 198 2.0 2.0 0.00 0.00 0.00 62 1016.5
20260902210329 93 23 2.0 2.0 0.00 0.00 0.00 63 1016.6
20260902205828 94 338 5.0 6.0 0.00 0.00 0.00 63 1016.6
20260902205322 95 264 2.0 3.0 0.00 0.00 0.00 62 1016.8
20260902204818 95 219 0.0 0.0 0.00 0.00 0.00 63 1016.7
20260902204312 95 181 2.0 2.0 0.00 0.00 0.00 62 1016.6
20260902203808 94 195 0.0 0.0 0.00 0.00 0.00 62 1016.6
20260902203303 94 223 0.0 0.0 0.00 0.00 0.00 63 1016.8
20260902202803 94 119 1.0 3.0 0.00 0.00 0.00 63 1016.7
20260902202259 94 200 2.0 2.0 0.00 0.00 0.00 63 1017.0
20260902201756 94 259 1.0 2.0 0.00 0.00 0.00 63 1016.8
20260902201255 93 275 4.0 6.0 0.00 0.00 0.00 62 1016.8
20260902200750 94 306 3.0 6.0 0.00 0.00 0.00 63 1016.8
20260902200245 94 254 4.0 5.0 0.00 0.00 0.00 63 1017.0
20260902195741 94 177 0.0 0.0 0.00 0.00 0.00 64 1017.0
20260902195244 94 218 0.0 0.0 0.00 0.00 0.00 64 1017.2
20260902194735 94 206 1.0 3.0 0.00 0.00 0.00 63 1017.5
20260902194230 94 184 1.0 2.0 0.00 0.00 0.00 64 1017.2
20260902193725 93 206 2.0 3.0 0.00 0.00 0.00 62 1017.5
20260902193220 95 282 3.0 5.0 0.00 0.00 0.00 62 1017.1
20260902192718 94 164 0.0 0.0 0.00 0.00 0.00 64 1017.6
20260902192212 94 229 1.0 1.0 0.00 0.00 0.00 63 1017.6
20260902191707 94 204 2.0 3.0 0.00 0.00 0.00 63 1017.6
20260902191201 93 192 0.0 1.0 0.00 0.00 0.00 65 1017.8
20260902190657 93 177 2.0 3.0 0.00 0.00 0.00 65 1017.9
20260902190152 93 192 1.0 1.0 0.00 0.00 0.00 64 1017.7
20260902185647 94 277 1.0 2.0 0.00 0.00 0.00 65 1017.8
20260902185143 93 140 0.0 0.0 0.00 0.00 0.00 64 1017.6
20260902184638 93 67 2.0 2.0 0.00 0.00 0.00 65 1017.8
20260902184133 93 187 0.0 1.0 0.00 0.00 0.00 65 1017.8
20260902183629 94 144 2.0 2.0 0.00 0.00 0.00 63 1018.0
20260902183126 94 301 3.0 5.0 0.00 0.00 0.00 64 1017.9
20260902182621 93 279 1.0 2.0 0.00 0.00 0.00 65 1018.0
20260902182118 93 207 0.0 0.0 0.00 0.00 0.00 67 1018.1
20260902181614 94 192 0.0 1.0 0.00 0.00 0.00 64 1018.2
20260902181112 93 199 0.0 0.0 0.00 0.00 0.00 66 1018.1
20260902180607 93 240 2.0 3.0 0.00 0.00 0.00 68 1018.3
20260902175603 93 128 1.0 2.0 0.00 0.00 0.00 66 1018.3
20260902175058 93 221 2.0 3.0 0.00 0.00 0.00 66 1018.1
20260902174555 93 186 1.0 2.0 0.00 0.00 0.00 66 1018.3
20260902174050 93 341 4.0 5.0 0.00 0.00 0.00 67 1018.4
20260902173549 92 191 1.0 1.0 0.00 0.00 0.00 68 1018.4
20260902173045 93 171 2.0 2.0 0.00 0.00 0.00 69 1018.3
20260902172539 92 66 2.0 2.0 0.00 0.00 0.00 70 1018.4
20260902172034 93 222 3.0 3.0 0.00 0.00 0.00 67 1018.5
20260902171530 93 183 0.0 1.0 0.00 0.00 0.00 69 1018.5
20260902171026 92 203 3.0 3.0 0.00 0.00 0.00 69 1018.7
20260902170520 92 250 2.0 3.0 0.00 0.00 0.00 67 1018.4
20260902170016 92 206 2.0 3.0 0.00 0.00 0.00 66 1018.6
20260902165515 92 187 1.0 1.0 0.00 0.00 0.00 71 1018.4
20260902165010 92 216 1.0 2.0 0.00 0.00 0.00 68 1018.7
20260902164505 91 187 1.0 2.0 0.00 0.00 0.00 67 1018.6
20260902164004 91 92 4.0 7.0 0.00 0.00 0.00 73 1018.7
20260902163500 91 181 0.0 0.0 0.00 0.00 0.00 71 1018.7
20260902162957 91 353 2.0 5.0 0.00 0.00 0.00 72 1018.9
20260902162452 91 208 1.0 2.0 0.00 0.00 0.00 71 1019.0
20260902161947 91 176 1.0 2.0 0.00 0.00 0.00 72 1018.9
20260902161442 90 147 3.0 3.0 0.00 0.00 0.00 73 1018.9
20260902160938 90 234 3.0 3.0 0.00 0.00 0.00 73 1019.0
20260902160433 90 199 1.0 1.0 0.00 0.00 0.00 72 1019.0
20260902155931 89 206 1.0 1.0 0.00 0.00 0.00 73 1019.2
20260902155426 89 272 4.0 6.0 0.00 0.00 0.00 73 1019.0
20260902154920 90 282 2.0 3.0 0.00 0.00 0.00 72 1019.0
20260902154415 90 184 1.0 2.0 0.00 0.00 0.00 74 1019.0
20260902153910 89 183 3.0 5.0 0.00 0.00 0.00 73 1019.1
20260902153408 89 267 1.0 2.0 0.00 0.00 0.00 74 1019.0
20260902152904 89 90 3.0 3.0 0.00 0.00 0.00 73 1019.0
20260902152400 88 164 0.0 0.0 0.00 0.00 0.00 77 1019.1
20260902151856 88 230 2.0 3.0 0.00 0.00 0.00 74 1019.3
20260902151351 88 164 1.0 2.0 0.00 0.00 0.00 75 1019.2
20260902150850 88 300 3.0 5.0 0.00 0.00 0.00 75 1019.1
20260902150347 89 273 2.0 3.0 0.00 0.00 0.00 75 1019.2
20260902145846 88 179 0.0 0.0 0.00 0.00 0.00 75 1019.2
20260902145341 87 0 5.0 6.0 0.00 0.00 0.00 75 1019.1
20260902144836 87 234 3.0 3.0 0.00 0.00 0.00 75 1019.2
20260902144332 87 203 1.0 3.0 0.00 0.00 0.00 76 1019.2
20260902143828 87 191 1.0 1.0 0.00 0.00 0.00 76 1019.2
20260902143327 87 279 6.0 7.0 0.00 0.00 0.00 75 1019.0
20260902142823 87 247 2.0 5.0 0.00 0.00 0.00 77 1019.0
20260902142319 87 202 2.0 2.0 0.00 0.00 0.00 77 1019.1
20260902141814 86 187 0.0 1.0 0.00 0.00 0.00 78 1019.0
20260902141310 86 197 0.0 0.0 0.00 0.00 0.00 78 1019.1
20260902140809 85 186 0.0 0.0 0.00 0.00 0.00 79 1019.1
20260902140305 85 248 2.0 2.0 0.00 0.00 0.00 78 1019.0
20260902135804 84 239 2.0 3.0 0.00 0.00 0.00 79 1019.0
20260902135300 84 188 2.0 2.0 0.00 0.00 0.00 79 1019.0
20260902134759 84 226 0.0 0.0 0.00 0.00 0.00 80 1019.0
20260902134255 84 309 3.0 3.0 0.00 0.00 0.00 79 1018.9
20260902133750 84 213 1.0 1.0 0.00 0.00 0.00 80 1019.0
20260902133249 83 217 1.0 2.0 0.00 0.00 0.00 80 1018.8
20260902132744 83 177 0.0 0.0 0.00 0.00 0.00 81 1018.7
20260902132240 83 91 3.0 3.0 0.00 0.00 0.00 80 1019.0
20260902131736 83 250 1.0 1.0 0.00 0.00 0.00 79 1019.2
20260902131232 83 200 0.0 1.0 0.00 0.00 0.00 80 1018.8
20260902130732 82 207 0.0 1.0 0.00 0.00 0.00 81 1018.9
20260902130227 82 174 2.0 2.0 0.00 0.00 0.00 81 1018.6
20260902125723 81 177 0.0 0.0 0.00 0.00 0.00 82 1018.9
20260902125219 81 230 1.0 2.0 0.00 0.00 0.00 82 1018.9
20260902124715 81 176 0.0 0.0 0.00 0.00 0.00 82 1018.8
20260902124210 81 182 0.0 0.0 0.00 0.00 0.00 81 1018.7
20260902123705 80 166 1.0 1.0 0.00 0.00 0.00 82 1018.7
20260902123201 80 235 1.0 2.0 0.00 0.00 0.00 81 1018.6
20260902122659 80 171 0.0 0.0 0.00 0.00 0.00 82 1018.5
20260902122155 80 162 0.0 0.0 0.00 0.00 0.00 82 1018.4
20260902121650 80 177 0.0 0.0 0.00 0.00 0.00 82 1018.7
20260902121144 79 192 0.0 0.0 0.00 0.00 0.00 83 1018.8
20260902120641 78 185 0.0 0.0 0.00 0.00 0.00 83 1018.5
20260902120137 78 179 0.0 0.0 0.00 0.00 0.00 84 1018.6
20260902115631 78 236 0.0 0.0 0.00 0.00 0.00 85 1018.4
20260902115127 77 190 0.0 1.0 0.00 0.00 0.00 85 1018.2
20260902114623 77 176 0.0 0.0 0.00 0.00 0.00 86 1018.3
20260902114124 76 171 0.0 0.0 0.00 0.00 0.00 87 1018.4
20260902113619 75 171 0.0 0.0 0.00 0.00 0.00 88 1018.4
20260902113114 74 168 0.0 1.0 0.00 0.00 0.00 90 1018.2
20260902112609 74 187 0.0 1.0 0.00 0.00 0.00 91 1018.2
20260902112106 73 191 0.0 0.0 0.00 0.00 0.00 92 1018.2
20260902111601 73 212 0.0 0.0 0.00 0.00 0.00 93 1018.2
20260902111057 72 186 0.0 0.0 0.00 0.00 0.00 94 1018.2
20260902110553 72 182 0.0 0.0 0.00 0.00 0.00 94 1018.0
20260902110048 72 188 0.0 0.0 0.00 0.00 0.00 95 1018.3
20260902105543 72 180 0.0 0.0 0.00 0.00 0.00 95 1018.4
20260902105042 72 183 0.0 0.0 0.00 0.00 0.00 95 1018.5
20260902104538 72 182 0.0 0.0 0.00 0.00 0.00 95 1018.0
20260902104033 72 180 0.0 0.0 0.00 0.00 0.00 95 1018.2
20260902103529 72 173 0.0 0.0 0.00 0.00 0.00 95 1018.2
20260902103024 72 181 0.0 0.0 0.00 0.00 0.00 94 1018.3
20260902102521 72 184 0.0 0.0 0.00 0.00 0.00 94 1018.1
20260902102017 72 181 0.0 0.0 0.00 0.00 0.00 94 1018.3
20260902101512 72 182 0.0 0.0 0.00 0.00 0.00 94 1018.2
20260902101011 72 191 0.0 0.0 0.00 0.00 0.00 94 1018.2
20260902100506 72 188 0.0 0.0 0.00 0.00 0.00 94 1018.2
20260902100005 73 192 0.0 0.0 0.00 0.00 0.00 93 1018.2
20260902095500 73 179 0.0 0.0 0.00 0.00 0.00 93 1018.3
20260902094959 73 172 0.0 0.0 0.00 0.00 0.00 93 1018.0
20260902094455 73 187 0.0 0.0 0.00 0.00 0.00 93 1018.4
20260902093955 73 189 0.0 0.0 0.00 0.00 0.00 93 1018.3
20260902093450 73 197 0.0 0.0 0.00 0.00 0.00 93 1018.2
20260902092949 73 188 0.0 0.0 0.00 0.00 0.00 93 1018.2
20260902092445 73 189 0.0 0.0 0.00 0.00 0.00 93 1018.1
20260902091945 73 187 0.0 0.0 0.00 0.00 0.00 93 1017.9
20260902091440 73 169 0.0 0.0 0.00 0.00 0.00 93 1018.1
20260902090931 73 166 0.0 1.0 0.00 0.00 0.00 92 1018.3
20260902090426 73 181 0.0 1.0 0.00 0.00 0.00 92 1018.0
20260902085924 73 180 0.0 0.0 0.00 0.00 0.00 92 1018.2
20260902085420 73 182 0.0 0.0 0.00 0.00 0.00 91 1018.0
20260902084915 74 184 0.0 0.0 0.00 0.00 0.00 91 1018.0
20260902084411 74 170 0.0 0.0 0.00 0.00 0.00 91 1018.0
20260902083906 74 169 0.0 0.0 0.00 0.00 0.00 91 1017.9
20260902083401 74 179 0.0 0.0 0.00 0.00 0.00 90 1017.9
20260902082856 74 178 0.0 0.0 0.00 0.00 0.00 90 1017.7
20260902082352 74 187 0.0 0.0 0.00 0.00 0.00 90 1017.8
20260902081848 75 181 0.0 0.0 0.00 0.00 0.00 89 1017.7
20260902081344 75 180 0.0 0.0 0.00 0.00 0.00 89 1017.7
20260902080839 75 193 0.0 0.0 0.00 0.00 0.00 89 1017.7
20260902080335 75 162 0.0 0.0 0.00 0.00 0.00 88 1017.5
20260902075834 75 168 0.0 0.0 0.00 0.00 0.00 88 1017.2
20260902075331 75 176 0.0 0.0 0.00 0.00 0.00 89 1017.6
20260902074826 75 141 0.0 0.0 0.00 0.00 0.00 89 1017.2
20260902074321 75 174 0.0 0.0 0.00 0.00 0.00 89 1017.2
20260902073816 75 166 0.0 0.0 0.00 0.00 0.00 89 1017.5
20260902073312 75 188 0.0 0.0 0.00 0.00 0.00 89 1017.3
20260902072808 75 191 0.0 0.0 0.00 0.00 0.00 89 1017.5
20260902072308 75 215 0.0 0.0 0.00 0.00 0.00 88 1017.3
20260902071800 75 212 0.0 0.0 0.00 0.00 0.00 88 1017.7
20260902071255 76 181 0.0 0.0 0.00 0.00 0.00 87 1017.3
20260902070751 76 178 0.0 0.0 0.00 0.00 0.00 87 1017.2
20260902070250 77 179 0.0 0.0 0.00 0.00 0.00 86 1017.5
20260902065749 77 185 0.0 0.0 0.00 0.00 0.00 86 1017.2
20260902065244 77 157 0.0 0.0 0.00 0.00 0.00 85 1017.2
20260902064740 77 166 0.0 0.0 0.00 0.00 0.00 85 1017.0
20260902064236 78 184 0.0 0.0 0.00 0.00 0.00 84 1017.1
20260902063732 78 178 0.0 0.0 0.00 0.00 0.00 84 1017.1
20260902063231 78 159 2.0 5.0 0.00 0.00 0.00 84 1017.1
20260902062725 78 183 0.0 0.0 0.00 0.00 0.00 84 1017.1
20260902062221 78 177 0.0 0.0 0.00 0.00 0.00 84 1017.1
20260902061719 78 181 0.0 0.0 0.00 0.00 0.00 84 1016.9
20260902061215 77 178 0.0 0.0 0.00 0.00 0.00 84 1017.1
20260902060712 77 181 0.0 0.0 0.00 0.00 0.00 84 1017.3
20260902060208 77 184 0.0 0.0 0.00 0.00 0.00 84 1017.2
20260902055703 77 189 0.0 0.0 0.00 0.00 0.00 84 1017.5
20260902055159 78 179 0.0 0.0 0.00 0.00 0.00 84 1017.3
20260902054654 78 179 0.0 1.0 0.00 0.00 0.00 84 1017.2
20260902054149 77 181 0.0 0.0 0.00 0.00 0.00 84 1017.6
20260902053644 77 186 0.0 0.0 0.00 0.00 0.00 84 1017.5
20260902053139 77 180 0.0 0.0 0.00 0.00 0.00 85 1017.3
20260902052638 77 202 0.0 0.0 0.00 0.00 0.00 86 1017.5
20260902052134 77 182 0.0 0.0 0.00 0.00 0.00 86 1017.5